Meteo Giornale » Osservazioni meteo Belgio » Chievres

ore: 19:25 - Osservazioni Meteo Chievres
Lat. 50° 34' N Lon. 3° 50' E Alt. 60 metri s.l.m.

molto_nuvoloso Europe/Brussels

19 °C

Molto Nuvoloso

Temp. 24 Ore

8 °C

21 °C

Ovest/Sud-Ovest

9.3 Km/h

Dew point 13 °C

Umidità 68 %

Visibilità  10 Km

Il sole sorge alle ore 07:31

Il sole tramonta alle ore 19:42

Data e Ora Cielo e Fenomeni T °C DP °C Um. % Pres. hPa Vis. km Vento km/h
Oggi h: 19:25 molto_nuvoloso Molto Nuvoloso 19 13 68 1018 10 O/SO 9.3
Oggi h: 18:55 molto_nuvoloso Molto Nuvoloso 19 13 68 1018 10 O 11.1
Oggi h: 18:25 molto_nuvoloso Molto Nuvoloso 20 13 64 1019 10 O 14.8
Oggi h: 17:55 coperto Coperto 20 13 64 1019 10 O 14.8
Oggi h: 17:25 molto_nuvoloso Molto Nuvoloso 20 12 59 1019 10 O/SO 16.7
Oggi h: 16:25 molto_nuvoloso Molto Nuvoloso 20 12 59 1019 10 O 18.5
Oggi h: 15:55 poco_nuvoloso Poco Nuvoloso 21 12 56 1019 10 O 18.5
Oggi h: 15:25 poco_nuvoloso Poco Nuvoloso 20 12 59 1020 10 O 18.5
Oggi h: 14:55 nuvoloso Nuvoloso 20 12 59 1020 10 O 20.3
Oggi h: 14:25 molto_nuvoloso Molto Nuvoloso 20 12 59 1020 10 O 20.3
Oggi h: 13:55 molto_nuvoloso Molto Nuvoloso 19 12 63 1020 10 O 18.5
Oggi h: 13:25 nuvoloso Nuvoloso 19 13 68 1020 10 O/SO 18.5
Oggi h: 12:55 poco_nuvoloso Poco Nuvoloso 18 12 67 1020 10 O/SO 20.3
Oggi h: 12:25 poco_nuvoloso Poco Nuvoloso 18 12 67 1020 10 SO 20.3
Oggi h: 11:55 poco_nuvoloso Poco Nuvoloso 17 13 77 1021 10 O/SO 18.5
Oggi h: 11:20 nuvoloso Nuvoloso 16 12 77 1021 10 O/SO 18.5
Oggi h: 10:55 sereno Sereno 16 12 77 1021 10 SO 14.8
Oggi h: 10:25 poco_nuvoloso Poco Nuvoloso 15 12 82 1021 10 SO 13
Oggi h: 10:23 poco_nuvoloso Poco Nuvoloso 15 12 82 1021 10 SO 13
Oggi h: 10:11 poco_nuvoloso Poco Nuvoloso 14 12 87 1021 7 SO 13
Oggi h: 09:55 sereno Sereno 13 11 87 1022 10 SO 11.1
Oggi h: 09:25 sereno Sereno 12 10 87 1021 10 S/SO 11.1
Oggi h: 08:55 sereno Sereno 11 9 87 1022 10 S/SO 7.4
Oggi h: 08:25 sereno Sereno 9 8 93 1021 10 S 9.3
Oggi h: 07:55 sereno Sereno 8 7 93 1022 10 S/SO 7.4
Oggi h: 07:25 sereno Sereno 8 7 93 1022 10 N 5.5
Oggi h: 06:55 sereno Sereno 8 7 93 1022 10 SO 7.4
Oggi h: 06:25 sereno Sereno 8 8 100 1022 10 S/SO 11.1
Oggi h: 05:55 sereno Sereno 8 7 93 1022 10 S 7.4
Oggi h: 05:25 sereno Sereno 8 7 93 1022 10 N 3.7
Oggi h: 04:55 sereno Sereno 9 8 93 1022 10 S/SO 9.3